Regional Weather Roundup
Issued by NWS

Home | Current Version | Previous Version | Graphics & Text | Print | Product List | Glossary On
Versions: 1 2 3 4 5 6 7 8 9 10 11 12 13 14 15 16 17 18 19 20 21 22 23 24 25 26 27 28 29 30 31 32 33 34 35 36 37 38 39 40 41 42 43 44 45 46 47 48 49 50
000
ASUS45 KBOU 191507
RWRCO

WEATHER ROUNDUP FOR COLORADO
NATIONAL WEATHER SERVICE DENVER/BOULDER CO
900 AM MDT TUE AUG 19 2014

NOTE: "FAIR" INDICATES FEW OR NO CLOUDS BELOW 12000 FEET WITH NO
SIGNIFICANT WEATHER AND/OR OBSTRUCTIONS TO VISIBILITY.

COZ001>005-013-030-031-191600-
...NORTHWEST COLORADO...

CITY           SKY/WX    TMP DP  RH WIND       PRES   REMARKS
CRAIG          CLOUDY    59  46  62 CALM      30.13R
HAYDEN         CLOUDY    57  39  51 E12       30.15R
MEEKER         CLOUDY    63  45  51 CALM      30.13S
MOUNT WERNER   NOT AVBL
STEAMBOAT SPGS CLOUDY    53  43  70 CALM      30.18R
WALDEN         PTSUNNY   54  39  58 SE6       30.23S
$$

COZ006>008-011-191600-
...WEST CENTRAL VALLEYS...

CITY           SKY/WX    TMP DP  RH WIND       PRES   REMARKS
GRAND JUNCTION LGT RAIN  68  54  60 W8        30.07R
MONTROSE       CLOUDY    71  48  43 SE12      30.10F
EAGLE          CLOUDY    55  41  58 CALM      30.20R
RIFLE          CLOUDY    63  46  54 CALM      30.08F
DELTA          CLOUDY    75  44  33 NE7       30.07S
NUCLA          CLOUDY    68  46  45 NW3       30.14S
$$

COZ017>023-064>068-191600-
...SOUTHWEST COLORADO...

CITY           SKY/WX    TMP DP  RH WIND       PRES   REMARKS
DURANGO        PTSUNNY   65  50  58 CALM      30.17R
CORTEZ         SUNNY     69  53  56 VRB5      30.11F
PAGOSA SPRINGS PTSUNNY   62  46  55 CALM      30.24R
TELLURIDE      PTSUNNY   55  46  71 SE8       30.31F
WOLF CREEK PAS NOT AVBL
$$

COZ009-010-012-014-032>034-037-058>063-191600-
...CENTRAL COLORADO...

CITY           SKY/WX    TMP DP  RH WIND       PRES   REMARKS
ASPEN          CLOUDY    60  45  57 CALM      30.23R
BUENA VISTA    PTSUNNY   61  39  44 CALM      30.24F
COPPER MTN     CLOUDY    54  34  47 W6        30.52S
BERTHOUD PASS  FAIR      45  45 100 NW12      30.56S
COTTONWOOD PAS PTSUNNY   63  34  34 W9G16     30.37S
GUNNISON       CLOUDY    57  39  51 NE13      30.26F
KREMMLING      CLOUDY    52  34  50 CALM      30.25S
LEADVILLE      PTSUNNY   52  39  61 N3        30.37R
MONARCH PASS   CLOUDY    46  36  66 SW14G24   30.61R
SALIDA         PTSUNNY   65  42  42 N7        30.27F
SUNLIGHT       CLOUDY    54  43  66 CALM      30.45S
WILKERSON PASS NOT AVBL
$$

COZ069>075-191600-
...SAN LUIS VALLEY/SANGRE DE CRISTO MOUNTAINS...

CITY           SKY/WX    TMP DP  RH WIND       PRES   REMARKS
ALAMOSA        MOSUNNY   64  46  52 N6        30.23S
LA VETA PASS   CLOUDY    54  37  54 SW8G17    30.37R
SAGUACHE       CLOUDY    59  43  55 CALM      30.26S
$$

COZ035-036-038>040-191600-
...NORTHERN COLORADO FRONT RANGE...

CITY           SKY/WX    TMP DP  RH WIND       PRES   REMARKS
DENVER INTL AP PTSUNNY   71  47  42 SW7       29.99F
DMNS CITY PARK   N/A     71  44  37 S3        29.99S
AURORA         PTSUNNY   69  47  46 SW6       30.02S
FRONT RANGE AP NOT AVBL
ERIE MUNI ARPT MOSUNNY   71  50  46 SE3       29.97S
BOULDER MUN AP MOSUNNY   70  50  49 CALM      29.98R
CENTENNIAL     PTSUNNY   72  46  39 CALM      30.03S
BROOMFIELD     PTSUNNY   72  48  43 SE5       30.01S
FORT COLLINS   PTSUNNY   66  50  55 CALM      29.98S
LONGMONT       PTSUNNY   70  55  58 NE3       29.98F
$$

COZ041-046-047-076>085-087-088-191600-
...PIKES PEAK/PALMER DIVIDE AND SOUTHERN FOOTHILLS...

CITY           SKY/WX    TMP DP  RH WIND       PRES   REMARKS
COLO. SPRINGS  PTSUNNY   68  51  54 SE3       30.08R
A. F. ACADEMY    N/A    N/A N/A N/A W6          N/A
ELLICOTT       PTSUNNY   70  49  47 CALM      30.05F
FALCON         PTSUNNY   70  47  43 CALM      30.12S
FORT CARSON    PTSUNNY   66  48  52 NW3       30.05S
LIMON          PTSUNNY   71  50  47 CALM      30.01S
MONUMENT HILL  MOSUNNY   70  45  40 W8        30.11S
TRINIDAD       MOSUNNY   74  46  36 SW10      30.05F
$$

COZ042>045-048>051-090-091-191600-
...NORTHEAST COLORADO...

CITY           SKY/WX    TMP DP  RH WIND       PRES   REMARKS
GREELEY ARPT   PTSUNNY   64  50  59 CALM      29.96F
AKRON          MOSUNNY   74  54  49 CALM      29.96F
BURLINGTON     PTSUNNY   71  55  56 SW5       29.94F
WRAY             N/A     74  55  52 NE6       29.92F
STERLING       MOSUNNY   72  61  68 S5        29.92F
HOLYOKE        NOT AVBL
FORT MORGAN    MOSUNNY   69  53  55 SW5       29.96S
$$

COZ086-089-092>099-191600-
...SOUTHEAST COLORADO...

CITY           SKY/WX    TMP DP  RH WIND       PRES   REMARKS
PUEBLO         PTSUNNY   69  51  52 SW5       29.98S
LA JUNTA       CLOUDY    74  53  48 W6        29.95R
LAMAR          PTSUNNY   76  49  38 SW13      29.90S
SPRINGFIELD      N/A     79  50  36 SW15      29.96F
$$



USA.gov is the U.S. government's official web portal to all federal, state and local government web resources and services.